When you browse on this site, cookies collect data to enhance your experience and personalize the content and advertising you see.
Visit our Privacy Policy to learn more. By continuing to use the site, you agree to this use of cookies and data.
  • En España
  • Lista de países
  • Para 7 días
  • Temperatura del agua
  • El tiempo en el mapa
  • Informadores
  • user-avatar
    Iniciar sesión

    Tiempo cada hora Trydent i Bolzano

    Hoy, 20 Septiembre, Viernes

    Tiempo Temperatura Precipitaciones Viento Presión Humedad
    00:00 +14°C° 0 mm 0 mps 742 mmHg 80%
    01:00 +13°C° 0 mm 0 mps 742 mmHg 79%
    02:00 +13°C° 0 mm 0 mps 742 mmHg 79%
    03:00 +13°C° 0 mm 0 mps 742 mmHg 78%
    04:00 +13°C° 0 mm 0 mps 742 mmHg 78%
    05:00 +13°C° 0 mm 0 mps 742 mmHg 78%
    06:00 +13°C° 0 mm 0 mps 742 mmHg 78%
    07:00 +14°C° 0 mm 0 mps 742 mmHg 78%
    08:00 +16°C° 0 mm 0 mps 742 mmHg 70%
    09:00 +20°C° 0 mm 1 mps 742 mmHg 63%
    10:00 +22°C° 0 mm 1 mps 742 mmHg 56%
    11:00 +23°C° 0 mm 1 mps 742 mmHg 54%
    12:00 +23°C° 0 mm 1 mps 741 mmHg 53%
    13:00 +24°C° 0 mm 2 mps 741 mmHg 51%
    14:00 +24°C° 0 mm 2 mps 741 mmHg 54%
    15:00 +24°C° 0 mm 2 mps 740 mmHg 57%
    16:00 +23°C° 0 mm 2 mps 740 mmHg 60%
    17:00 +21°C° 0 mm 1 mps 740 mmHg 71%
    18:00 +19°C° 0 mm 1 mps 740 mmHg 82%
    19:00 +14°C° 0 mm 0 mps 740 mmHg 94%
    20:00 +14°C° 0 mm 0 mps 741 mmHg 94%
    21:00 +13°C° 0 mm 0 mps 741 mmHg 95%
    22:00 +13°C° 0 mm 0 mps 741 mmHg 95%
    23:00 +13°C° 0 mm 0 mps 741 mmHg 96%

    Mañana, 21 Septiembre, Sábado

    Tiempo Temperatura Precipitaciones Viento Presión Humedad
    00:00 +13°C° 0 mm 0 mps 741 mmHg 96%
    01:00 +13°C° 0 mm 0 mps 741 mmHg 96%
    02:00 +13°C° 0 mm 0 mps 740 mmHg 96%
    03:00 +13°C° 0 mm 0 mps 740 mmHg 96%
    04:00 +13°C° 0 mm 0 mps 740 mmHg 95%
    05:00 +13°C° 0 mm 0 mps 740 mmHg 94%
    06:00 +13°C° 0 mm 0 mps 740 mmHg 93%
    07:00 +14°C° 0 mm 0 mps 739 mmHg 92%
    08:00 +16°C° 0 mm 0 mps 739 mmHg 83%
    09:00 +20°C° 0 mm 1 mps 739 mmHg 74%
    10:00 +22°C° 0 mm 1 mps 739 mmHg 66%
    11:00 +23°C° 0 mm 1 mps 739 mmHg 62%
    12:00 +24°C° 0 mm 2 mps 739 mmHg 57%
    13:00 +25°C° 0 mm 2 mps 739 mmHg 53%
    14:00 +25°C° 0 mm 2 mps 738 mmHg 55%
    15:00 +24°C° 0 mm 2 mps 738 mmHg 57%
    16:00 +24°C° 0 mm 2 mps 738 mmHg 59%
    17:00 +21°C° 0 mm 1 mps 738 mmHg 70%
    18:00 +19°C° 0 mm 1 mps 738 mmHg 81%
    19:00 +16°C° 0 mm 1 mps 738 mmHg 92%
    20:00 +15°C° 0 mm 1 mps 738 mmHg 93%
    21:00 +14°C° 0 mm 0 mps 738 mmHg 94%
    22:00 +13°C° 0 mm 0 mps 738 mmHg 95%
    23:00 +13°C° 0 mm 0 mps 738 mmHg 95%

    Pasado mañana, 22 Septiembre, Domingo

    Tiempo Temperatura Precipitaciones Viento Presión Humedad
    00:00 +13°C° 0 mm 0 mps 738 mmHg 95%
    01:00 +13°C° 0 mm 0 mps 737 mmHg 94%
    02:00 +13°C° 0 mm 0 mps 737 mmHg 94%
    03:00 +12°C° 0 mm 0 mps 737 mmHg 94%
    04:00 +12°C° 0 mm 0 mps 737 mmHg 93%
    05:00 +13°C° 0 mm 0 mps 736 mmHg 92%
    06:00 +13°C° 0 mm 0 mps 736 mmHg 90%
    07:00 +14°C° 0 mm 0 mps 736 mmHg 89%
    08:00 +18°C° 0 mm 1 mps 736 mmHg 81%
    09:00 +20°C° 0 mm 1 mps 736 mmHg 73%
    10:00 +23°C° 0 mm 1 mps 736 mmHg 65%
    11:00 +23°C° 0 mm 1 mps 735 mmHg 65%
    12:00 +24°C° 0 mm 2 mps 735 mmHg 64%
    13:00 +24°C° 0 mm 2 mps 735 mmHg 64%
    14:00 +24°C° 0 mm 2 mps 735 mmHg 68%
    15:00 +23°C° 0 mm 1 mps 734 mmHg 73%
    16:00 +22°C° 0 mm 1 mps 734 mmHg 78%
    17:00 +21°C° 0 mm 1 mps 734 mmHg 83%
    18:00 +20°C° 0 mm 1 mps 734 mmHg 88%
    19:00 +17°C° 0 mm 0 mps 734 mmHg 93%
    20:00 +17°C° 0 mm 0 mps 734 mmHg 94%
    21:00 +17°C° 0 mm 0 mps 733 mmHg 94%
    22:00 +16°C° 0 mm 0 mps 733 mmHg 94%
    23:00 +17°C° 0 mm 0 mps 733 mmHg 94%

    23 Septiembre, Lunes

    Tiempo Temperatura Precipitaciones Viento Presión Humedad
    00:00 +17°C° 0 mm 0 mps 733 mmHg 94%
    01:00 +17°C° 0 mm 0 mps 733 mmHg 94%
    02:00 +17°C° 0.3 mm 0 mps 732 mmHg 95%
    03:00 +17°C° 0.3 mm 0 mps 732 mmHg 96%
    04:00 +17°C° 0.3 mm 0 mps 732 mmHg 97%
    05:00 +17°C° 0.3 mm 0 mps 732 mmHg 97%
    06:00 +17°C° 0.3 mm 0 mps 732 mmHg 97%
    07:00 +17°C° 0.3 mm 0 mps 732 mmHg 97%
    08:00 +17°C° 0.8 mm 0 mps 732 mmHg 96%
    09:00 +20°C° 0.8 mm 1 mps 732 mmHg 95%
    10:00 +20°C° 0.8 mm 1 mps 733 mmHg 94%
    11:00 +20°C° 1.2 mm 1 mps 733 mmHg 94%
    12:00 +18°C° 1.2 mm 2 mps 732 mmHg 94%
    13:00 +17°C° 1.2 mm 2 mps 732 mmHg 94%
    14:00 +16°C° 1.7 mm 2 mps 732 mmHg 94%
    15:00 +16°C° 1.7 mm 2 mps 732 mmHg 94%
    16:00 +15°C° 1.7 mm 2 mps 732 mmHg 95%
    17:00 +15°C° 0.7 mm 2 mps 732 mmHg 95%
    18:00 +15°C° 0.7 mm 2 mps 732 mmHg 94%
    19:00 +14°C° 0.7 mm 2 mps 733 mmHg 94%
    20:00 +14°C° 0 mm 2 mps 733 mmHg 94%
    21:00 +13°C° 0 mm 2 mps 734 mmHg 94%
    22:00 +13°C° 0 mm 2 mps 734 mmHg 93%
    23:00 +13°C° 0 mm 2 mps 734 mmHg 93%

    24 Septiembre, Martes

    Tiempo Temperatura Precipitaciones Viento Presión Humedad
    00:00 +13°C° 0 mm 2 mps 734 mmHg 93%
    01:00 +13°C° 0 mm 2 mps 735 mmHg 92%
    02:00 +12°C° 0 mm 2 mps 735 mmHg 92%
    03:00 +12°C° 0 mm 2 mps 735 mmHg 92%
    04:00 +12°C° 0 mm 2 mps 735 mmHg 92%
    05:00 +12°C° 0 mm 2 mps 735 mmHg 90%
    06:00 +12°C° 0 mm 2 mps 735 mmHg 89%
    07:00 +13°C° 0 mm 2 mps 735 mmHg 88%
    08:00 +15°C° 0 mm 1 mps 735 mmHg 78%
    09:00 +19°C° 0 mm 1 mps 735 mmHg 68%
    10:00 +22°C° 0 mm 1 mps 735 mmHg 58%
    11:00 +23°C° 0 mm 1 mps 735 mmHg 54%
    12:00 +24°C° 0 mm 1 mps 734 mmHg 51%
    13:00 +25°C° 0 mm 1 mps 734 mmHg 47%
    14:00 +24°C° 0 mm 1 mps 734 mmHg 50%
    15:00 +24°C° 0 mm 1 mps 733 mmHg 53%
    16:00 +23°C° 0 mm 1 mps 733 mmHg 55%
    17:00 +21°C° 0 mm 1 mps 733 mmHg 64%
    18:00 +19°C° 0 mm 1 mps 733 mmHg 72%
    19:00 +15°C° 0 mm 0 mps 733 mmHg 80%
    20:00 +15°C° 0 mm 0 mps 734 mmHg 80%
    21:00 +16°C° 0 mm 1 mps 734 mmHg 79%
    22:00 +16°C° 0 mm 1 mps 734 mmHg 78%
    23:00 +14°C° 0 mm 0 mps 734 mmHg 78%

    25 Septiembre, Miércoles

    Tiempo Temperatura Precipitaciones Viento Presión Humedad
    00:00 +14°C° 0 mm 0 mps 734 mmHg 77%
    01:00 +14°C° 0 mm 0 mps 733 mmHg 77%
    02:00 +14°C° 0 mm 0 mps 733 mmHg 76%
    03:00 +14°C° 0 mm 0 mps 733 mmHg 75%
    04:00 +14°C° 0 mm 0 mps 732 mmHg 75%
    05:00 +14°C° 0 mm 0 mps 732 mmHg 74%
    06:00 +15°C° 0 mm 0 mps 732 mmHg 73%
    07:00 +15°C° 0 mm 0 mps 732 mmHg 73%
    08:00 +16°C° 0.1 mm 0 mps 732 mmHg 70%
    09:00 +18°C° 0.1 mm 0 mps 733 mmHg 68%
    10:00 +19°C° 0.1 mm 0 mps 733 mmHg 65%
    11:00 +21°C° 0.1 mm 1 mps 733 mmHg 66%
    12:00 +22°C° 0.1 mm 1 mps 732 mmHg 67%
    13:00 +22°C° 0.1 mm 1 mps 732 mmHg 67%
    14:00 +22°C° 0.1 mm 1 mps 732 mmHg 69%
    15:00 +22°C° 0.1 mm 1 mps 732 mmHg 70%
    16:00 +21°C° 0.1 mm 1 mps 732 mmHg 72%
    17:00 +18°C° 0 mm 0 mps 732 mmHg 78%
    18:00 +17°C° 0 mm 0 mps 732 mmHg 83%
    19:00 +15°C° 0 mm 0 mps 732 mmHg 89%
    20:00 +15°C° 0 mm 0 mps 732 mmHg 90%
    21:00 +14°C° 0 mm 0 mps 732 mmHg 91%
    22:00 +14°C° 0 mm 0 mps 732 mmHg 92%
    23:00 +14°C° 0 mm 0 mps 732 mmHg 92%
    Mostrar más